[[{"header":{"parameterUnit":"m.s-1","parameterCategory":1,"la1":30.2991,"la2":30.254,"lo1":-89.0895,"lo2":-89.0444,"dy":0.0017,"dx":0.0017,"nx":28,"ny":28,"refTime":"2024-08-11T09:00:00:Z","depth":0,"parameterNumber":2,"parameterNumberName":"U-component_of_WINDS"},"data":[0,0,0,0,0,0,0,0,0,0,0,0,0,0,0,0,0,0,0,0,0,0,0,0,0,0,0,0,0,0,0,0,0,0,0,0,0,0,0,0,0,0,0,0,0,0,0,0,0,0,0,0,0,0,0,0,0,0,-0.8693,-0.8692,0,-0.8654,-0.8654,-0.8653,-0.8605,-0.8604,-0.8603,-0.8602,-0.8564,-0.8564,-0.8563,0,0,0,0,0,0,0,0,0,0,0,0,0,-0.8725,-0.8725,-0.8693,-0.8692,-0.8692,-0.8654,-0.8654,-0.8653,-0.8605,-0.8604,-0.8603,-0.8602,-0.8564,-0.8564,-0.8563,0,0,0,0,0,0,0,0,0,0,0,0,0,-0.8701,-0.8725,-0.8693,-0.8663,-0.866,-0.8654,-0.8654,-0.8653,-0.8605,-0.8604,-0.8603,-0.8602,-0.8564,-0.8564,-0.8563,-0.8584,0,0,-0.8562,-0.8562,0,0,0,0,0,0,0,0,-0.8703,-0.87,-0.8668,-0.8665,-0.8662,-0.8633,-0.8651,-0.863,-0.8605,-0.8626,-0.8602,-0.8601,-0.8588,-0.8586,-0.8581,-0.8582,-0.858,-0.8562,-0.8562,-0.8561,-0.8561,0,0,0,0,0,0,0,-0.8705,-0.8702,-0.8677,-0.8668,-0.8664,-0.8652,-0.8647,-0.8647,-0.8614,-0.8624,-0.862,-0.8616,-0.8586,-0.8581,-0.858,-0.858,-0.8562,-0.8562,-0.8561,-0.8561,-0.8596,-0.8597,0,0,0,0,0,0,-0.8711,-0.8703,-0.8679,-0.8676,-0.868,-0.8652,-0.8647,-0.8643,-0.8614,-0.8608,-0.8618,-0.8614,-0.8583,-0.858,-0.8578,-0.8601,-0.8562,-0.8561,-0.8561,-0.8595,-0.8596,-0.8597,0,0,0,0,0,0,-0.8711,-0.8709,-0.868,-0.8689,-0.8684,-0.8653,-0.8649,-0.8643,-0.8639,-0.8609,-0.8603,-0.8619,-0.8582,-0.8579,-0.8583,-0.8599,-0.8561,-0.856,-0.8593,-0.8595,-0.8597,-0.8646,0,0,0,0,0,0,-0.8713,-0.8709,-0.8717,-0.8689,-0.8684,-0.8686,-0.865,-0.8643,-0.8638,-0.8633,-0.8609,-0.8603,-0.8581,-0.8584,-0.8582,-0.8597,-0.856,-0.8592,-0.8594,-0.8596,-0.8643,-0.8649,-0.8654,0,0,0,0,0,-0.8714,-0.8733,-0.8718,-0.8715,-0.8693,-0.8687,-0.8684,-0.8657,-0.8639,-0.8647,-0.8627,-0.8604,-0.8597,-0.8584,-0.8582,-0.8598,-0.8591,-0.8593,-0.8596,-0.864,-0.8648,-0.8654,0,0,0,0,0,0,-0.8764,-0.8728,-0.8712,-0.8722,-0.8707,-0.8678,-0.8687,-0.8666,-0.8657,-0.8653,-0.862,-0.8615,-0.8623,-0.861,-0.8597,-0.8616,-0.859,-0.8593,-0.8624,-0.8631,-0.8637,-0.8641,-0.856,0,0,0,0,0,-0.8776,-0.8773,-0.8743,-0.8755,-0.8748,-0.8719,-0.8715,-0.8696,-0.868,-0.8674,-0.8655,-0.8641,-0.8635,-0.8632,-0.8625,-0.864,-0.8634,-0.8649,-0.8655,-0.866,-0.8663,-0.867,-0.8677,-0.8606,-0.8606,-0.8606,0,0,-0.8801,-0.8781,-0.8782,-0.8764,-0.8751,-0.875,-0.8714,-0.8715,-0.8713,-0.8674,-0.8677,-0.8662,-0.8644,-0.8653,-0.8657,-0.8643,-0.8681,-0.8663,-0.8668,-0.8668,-0.8673,-0.868,-0.8686,-0.8608,-0.8608,-0.8607,0,0,-0.8846,-0.8831,-0.8839,-0.8826,-0.8806,-0.8786,-0.8788,-0.8762,-0.8751,-0.8753,-0.8723,-0.8721,-0.8712,-0.8701,-0.8693,-0.8733,-0.8712,-0.8732,-0.8763,-0.877,-0.8776,-0.8781,-0.8796,-0.8802,-0.8734,-0.8734,-0.8734,0,-0.8881,-0.8877,-0.8846,-0.8848,-0.8842,-0.8805,-0.8813,-0.8802,-0.8781,-0.8777,-0.8762,-0.875,-0.8735,-0.8741,-0.8751,-0.8746,-0.8747,-0.8735,-0.8777,-0.8782,-0.8786,-0.88,-0.8806,-0.8737,-0.8737,-0.8736,-0.8736,0,-0.892,-0.8918,-0.8928,-0.8908,-0.8902,-0.8907,-0.8877,-0.8875,-0.8855,-0.8837,-0.8839,-0.882,-0.8808,-0.8808,-0.8789,-0.8812,-0.8804,-0.8783,-0.8757,-0.8796,-0.8809,-0.8814,-0.8741,-0.874,-0.8739,-0.8738,0,0,-0.8998,-0.896,-0.8964,-0.8955,-0.8929,-0.8927,-0.893,-0.8919,-0.8917,-0.8904,-0.8906,-0.8898,-0.8879,-0.8871,-0.885,-0.8856,-0.889,-0.8835,-0.8834,-0.8847,-0.8914,-0.8931,-0.8938,-0.8874,-0.8875,-0.8876,-0.8916,0,-0.904,-0.9044,-0.9016,-0.9027,-0.9025,-0.8989,-0.8992,-0.8976,-0.8959,-0.8955,-0.8935,-0.8931,-0.8905,-0.89,-0.8905,-0.8885,-0.8903,-0.8881,-0.8877,-0.8878,-0.8885,-0.8944,-0.8962,-0.9001,-0.8921,-0.8922,-0.8922,0,-0.909,-0.9079,-0.909,-0.9063,-0.9061,-0.9064,-0.9051,-0.9047,-0.9029,-0.9016,-0.9006,-0.8982,-0.8983,-0.8957,-0.8959,-0.8945,-0.8941,-0.8931,-0.8932,-0.8932,-0.8904,-0.8947,-0.9013,-0.9019,-0.893,-0.8929,-0.8928,0,-0.9148,-0.9134,-0.9139,-0.9132,-0.9101,-0.9104,-0.9091,-0.9071,-0.9066,-0.9054,-0.905,-0.9039,-0.9033,-0.9025,-0.8998,-0.8982,-0.9004,-0.8975,-0.8994,-0.8995,-0.9002,-0.9002,-0.9069,-0.8997,-0.8996,-0.8996,-0.8996,0,-0.9198,-0.9207,-0.9165,-0.9168,-0.9176,-0.9143,-0.9153,-0.9136,-0.9119,-0.9118,-0.9086,-0.9086,-0.905,-0.9046,-0.9025,-0.903,-0.9027,-0.9017,-0.9012,-0.9021,-0.9023,-0.902,-0.9017,-0.8998,-0.8998,-0.8997,-0.8997,0,-0.9265,-0.9237,-0.924,-0.9209,-0.9202,-0.921,-0.9184,-0.9185,-0.9165,-0.9165,-0.9163,-0.9132,-0.9125,-0.9097,-0.9085,-0.907,-0.9083,-0.9071,-0.909,-0.9087,-0.9107,-0.9106,-0.9176,-0.9184,-0.9105,-0.9106,-0.9107,0,-0.93,-0.9306,-0.9276,-0.9273,-0.9261,-0.9257,-0.9251,-0.9218,-0.9213,-0.9192,-0.9197,-0.9188,-0.9179,-0.9171,-0.9147,-0.9137,-0.9126,-0.9151,-0.9124,-0.9134,-0.9128,-0.9129,-0.913,-0.9158,-0.9159,-0.9159,-0.916,0,-0.9366,-0.9352,-0.9344,-0.9332,-0.9325,-0.9314,-0.9301,-0.93,-0.9264,-0.926,-0.9253,-0.9246,-0.9233,-0.9224,-0.921,-0.9197,-0.9173,-0.9168,-0.9172,-0.9183,-0.9194,-0.919,-0.9107,-0.9167,-0.9167,-0.9166,-0.9166,-0.9165,-0.9419,-0.9423,-0.9402,-0.9394,-0.9381,-0.9369,-0.9369,-0.9348,-0.9342,-0.9328,-0.9309,-0.9304,-0.9285,-0.9263,-0.9252,-0.9248,-0.9235,-0.924,-0.9242,-0.9244,-0.9249,-0.9193,-0.9245,-0.9245,-0.9245,-0.9244,-0.9244,0,-0.9485,-0.9469,-0.9463,-0.9445,-0.9439,-0.9415,-0.9399,-0.9396,-0.9392,-0.9376,-0.9368,-0.936,-0.9351,-0.9326,-0.9315,-0.9317,-0.9306,-0.9315,-0.9316,-0.9313,-0.9262,-0.926,-0.9325,-0.9325,-0.9325,-0.9325,-0.9325,-0.9325,-0.9519,-0.9523,-0.9506,-0.9503,-0.9487,-0.9483,-0.9476,-0.9465,-0.9451,-0.9444,-0.9436,-0.9419,-0.94,-0.9387,-0.9378,-0.9371,-0.9369,-0.9383,-0.9372,-0.9325,-0.9317,-0.931,-0.9308,-0.9382,-0.9382,-0.9424,-0.9425,-0.9425]},{"header":{"parameterUnit":"m.s-1","parameterCategory":1,"la1":30.2991,"la2":30.254,"lo1":-89.0895,"lo2":-89.0444,"dy":0.0017,"dx":0.0017,"nx":28,"ny":28,"refTime":"2024-08-11T09:00:00:Z","depth":0,"parameterNumber":3,"parameterNumberName":"V-component_of_WINDS"},"data":[0,0,0,0,0,0,0,0,0,0,0,0,0,0,0,0,0,0,0,0,0,0,0,0,0,0,0,0,0,0,0,0,0,0,0,0,0,0,0,0,0,0,0,0,0,0,0,0,0,0,0,0,0,0,0,0,0,0,-2.3202,-2.3203,0,-2.3254,-2.3254,-2.3255,-2.3259,-2.3259,-2.3258,-2.3257,-2.3306,-2.3308,-2.331,0,0,0,0,0,0,0,0,0,0,0,0,0,-2.3103,-2.3105,-2.3202,-2.3203,-2.3203,-2.3254,-2.3255,-2.3255,-2.3259,-2.3258,-2.3258,-2.3257,-2.3306,-2.3308,-2.331,0,0,0,0,0,0,0,0,0,0,0,0,0,-2.3149,-2.3105,-2.3202,-2.3211,-2.3213,-2.3254,-2.3255,-2.3255,-2.3259,-2.3258,-2.3258,-2.3257,-2.3305,-2.3307,-2.331,-2.3344,0,0,-2.3318,-2.332,0,0,0,0,0,0,0,0,-2.3147,-2.3153,-2.3209,-2.3211,-2.3212,-2.3249,-2.3237,-2.3285,-2.326,-2.3241,-2.3257,-2.3256,-2.3288,-2.3292,-2.3303,-2.3346,-2.3348,-2.3319,-2.332,-2.3322,-2.3322,0,0,0,0,0,0,0,-2.3143,-2.3151,-2.3222,-2.321,-2.3212,-2.3212,-2.3218,-2.3246,-2.3268,-2.3243,-2.3243,-2.325,-2.3288,-2.33,-2.3304,-2.3349,-2.3319,-2.3321,-2.3323,-2.3324,-2.3423,-2.3424,0,0,0,0,0,0,-2.3139,-2.3148,-2.3221,-2.3224,-2.3177,-2.3214,-2.3221,-2.3238,-2.3268,-2.3272,-2.325,-2.325,-2.3296,-2.3301,-2.3306,-2.3348,-2.3322,-2.3324,-2.3326,-2.3422,-2.3423,-2.3424,0,0,0,0,0,0,-2.3137,-2.3145,-2.3219,-2.3186,-2.3195,-2.3217,-2.3237,-2.324,-2.3252,-2.3274,-2.3277,-2.3259,-2.3296,-2.3302,-2.3335,-2.335,-2.3325,-2.3328,-2.3421,-2.3422,-2.3424,-2.3433,0,0,0,0,0,0,-2.3134,-2.3145,-2.3158,-2.3186,-2.3197,-2.3248,-2.3237,-2.3241,-2.3257,-2.3257,-2.3283,-2.3286,-2.3296,-2.3331,-2.3338,-2.3353,-2.333,-2.342,-2.3422,-2.3423,-2.3431,-2.3434,-2.3437,0,0,0,0,0,-2.313,-2.3157,-2.3159,-2.3168,-2.3215,-2.3249,-2.3255,-2.3266,-2.3258,-2.3272,-2.3286,-2.3286,-2.3347,-2.3334,-2.3342,-2.3359,-2.3419,-2.3421,-2.3423,-2.343,-2.3434,-2.3437,0,0,0,0,0,0,-2.3128,-2.3161,-2.3163,-2.32,-2.3222,-2.3249,-2.3266,-2.3269,-2.3292,-2.3291,-2.3302,-2.3308,-2.3341,-2.3353,-2.3338,-2.3393,-2.3382,-2.3386,-2.3384,-2.3388,-2.3391,-2.3388,-2.3332,0,0,0,0,0,-2.3132,-2.3158,-2.3185,-2.3215,-2.3226,-2.3244,-2.3259,-2.3267,-2.3289,-2.3297,-2.3314,-2.3334,-2.3358,-2.3374,-2.3397,-2.3433,-2.3439,-2.3448,-2.3451,-2.3453,-2.3457,-2.3478,-2.3482,-2.3432,-2.3432,-2.3432,0,0,-2.314,-2.3162,-2.3177,-2.3215,-2.3233,-2.3258,-2.3252,-2.3279,-2.3298,-2.3301,-2.3334,-2.3347,-2.337,-2.3405,-2.3421,-2.3416,-2.3472,-2.3456,-2.3458,-2.346,-2.348,-2.3485,-2.3489,-2.3433,-2.3433,-2.3433,0,0,-2.3169,-2.3187,-2.3215,-2.3234,-2.3261,-2.3273,-2.328,-2.3308,-2.3317,-2.3351,-2.3354,-2.3376,-2.3417,-2.3434,-2.3448,-2.3485,-2.3485,-2.3492,-2.3507,-2.3527,-2.3531,-2.3535,-2.3549,-2.3554,-2.3495,-2.3495,-2.3495,0,-2.3175,-2.3215,-2.3229,-2.3257,-2.3274,-2.328,-2.3308,-2.3324,-2.3357,-2.3368,-2.3362,-2.3415,-2.3431,-2.3471,-2.348,-2.3491,-2.3499,-2.3489,-2.353,-2.3534,-2.3537,-2.3551,-2.3556,-2.3496,-2.3495,-2.3495,-2.3495,0,-2.3222,-2.325,-2.3269,-2.3303,-2.3322,-2.335,-2.3367,-2.3384,-2.339,-2.3403,-2.3437,-2.3457,-2.3485,-2.3495,-2.35,-2.3536,-2.3532,-2.3528,-2.3517,-2.3543,-2.3556,-2.3561,-2.3497,-2.3496,-2.3496,-2.3496,0,0,-2.3249,-2.3293,-2.3299,-2.3316,-2.3347,-2.3368,-2.3396,-2.3426,-2.3441,-2.3464,-2.3487,-2.3523,-2.352,-2.3536,-2.3543,-2.3561,-2.359,-2.3555,-2.3556,-2.3561,-2.3632,-2.3635,-2.3641,-2.3591,-2.3592,-2.3592,-2.363,0,-2.3282,-2.3334,-2.3348,-2.3392,-2.3418,-2.3425,-2.3449,-2.3471,-2.3484,-2.3507,-2.3521,-2.3546,-2.354,-2.355,-2.3568,-2.3583,-2.3604,-2.358,-2.3613,-2.3614,-2.3607,-2.3648,-2.3651,-2.3685,-2.3635,-2.3636,-2.3637,0,-2.3327,-2.3353,-2.3401,-2.3431,-2.3442,-2.3464,-2.3493,-2.3515,-2.354,-2.3548,-2.3567,-2.3573,-2.3602,-2.3589,-2.3629,-2.3613,-2.3627,-2.3636,-2.3637,-2.3641,-2.3627,-2.3653,-2.3697,-2.3702,-2.3644,-2.3644,-2.3643,0,-2.3343,-2.339,-2.3425,-2.3439,-2.3474,-2.349,-2.3505,-2.3529,-2.3546,-2.3571,-2.3582,-2.3609,-2.3624,-2.3644,-2.3657,-2.3647,-2.3696,-2.3685,-2.3704,-2.3704,-2.3714,-2.3713,-2.3761,-2.3722,-2.3722,-2.3722,-2.3722,0,-2.3379,-2.3408,-2.3434,-2.3455,-2.3488,-2.3503,-2.3534,-2.3549,-2.3571,-2.3595,-2.3601,-2.3623,-2.3638,-2.3662,-2.3672,-2.3704,-2.3711,-2.3718,-2.372,-2.3718,-2.3717,-2.3727,-2.3725,-2.3723,-2.3723,-2.3723,-2.3722,0,-2.3403,-2.3421,-2.346,-2.3491,-2.35,-2.3523,-2.3549,-2.357,-2.3583,-2.3614,-2.3621,-2.3643,-2.3671,-2.3686,-2.3721,-2.3728,-2.3764,-2.3765,-2.3757,-2.3758,-2.3777,-2.3775,-2.3833,-2.3842,-2.3796,-2.3797,-2.3797,0,-2.3424,-2.3447,-2.3482,-2.3499,-2.3516,-2.3543,-2.3562,-2.3578,-2.3596,-2.3627,-2.3644,-2.3674,-2.3698,-2.3744,-2.3761,-2.3789,-2.379,-2.3809,-2.3794,-2.3791,-2.3791,-2.379,-2.3793,-2.3811,-2.3812,-2.3812,-2.3812,0,-2.3461,-2.347,-2.3497,-2.3528,-2.3551,-2.3576,-2.36,-2.3613,-2.3633,-2.3654,-2.3684,-2.3704,-2.3741,-2.377,-2.3799,-2.3813,-2.3816,-2.3817,-2.3823,-2.3821,-2.3816,-2.382,-2.3765,-2.3816,-2.3815,-2.3815,-2.3815,-2.3815,-2.3485,-2.3506,-2.3535,-2.3565,-2.3586,-2.3609,-2.3631,-2.3648,-2.3675,-2.3708,-2.3715,-2.3748,-2.3772,-2.3812,-2.3827,-2.3852,-2.3848,-2.3857,-2.3859,-2.3861,-2.3862,-2.3812,-2.3857,-2.3857,-2.3857,-2.3857,-2.3857,0,-2.3523,-2.3542,-2.357,-2.3606,-2.363,-2.3632,-2.366,-2.3679,-2.3709,-2.3732,-2.3757,-2.3793,-2.3822,-2.3843,-2.3872,-2.3888,-2.389,-2.3895,-2.3894,-2.3898,-2.3864,-2.3856,-2.3893,-2.3893,-2.3893,-2.3893,-2.3893,-2.3893,-2.3545,-2.3582,-2.3594,-2.3641,-2.366,-2.3694,-2.3709,-2.373,-2.375,-2.379,-2.3815,-2.3829,-2.3852,-2.3883,-2.3909,-2.3915,-2.3925,-2.3931,-2.3936,-2.3904,-2.39,-2.3896,-2.3889,-2.3933,-2.3933,-2.3968,-2.3968,-2.3969]}]]